Location: Calvatone
(45.1167°N, 10.4333°E)
Time: 20:29:05
(UTC+00:00)

Cosmos 1544 Rocket - Pass Details

Date: 28 January 2023
Orbit: 604 x 629 km, 82.5° (Epoch: 21 March)

Event Time Altitude Azimuth Distance (km) Brightness Sun altitude
Rises 17:20:19 0° 352° (N) 2,872 6.9 -10.9°
Reaches altitude 10° 17:22:33 10° 353° (N) 1,962 6.1 -11.3°
Maximum altitude 17:26:53 80° 80° (E) 619 3.4 -12.0°
Drops below altitude 10° 17:31:12 10° 169° (S) 1,946 6.1 -12.7°
Sets 17:33:24 0° 170° (S) 2,846 7.0 -13.1°
